This is the latest recevied weather packets stored in our database for station/object KD2FKI. If no packets are shown the sender has not sent any weather packets the latest 10 day(s).
| Time | Temp. | Humidity | Pressure | Rain* | Wind** | Luminosity | Snow |
|---|---|---|---|---|---|---|---|
| 1777836635 | 17.78° C | 33% | - | 0 mm | - | - | - |
| 1777836045 | 17.78° C | 33% | - | 0 mm | - | - | - |
| 1777835433 | 17.22° C | 35% | - | 0 mm | - | - | - |
| 1777834843 | 16.11° C | 35% | - | 0 mm | - | - | - |
| 1777834234 | 17.22° C | 35% | - | 0 mm | - | - | - |
| 1777833640 | 17.22° C | 35% | - | 0 mm | - | - | - |
| 1777833047 | 17.22° C | 36% | - | 0 mm | - | - | - |
| 1777832437 | 16.11° C | 37% | - | 0 mm | - | - | - |
| 1777831845 | 17.22° C | 35% | - | 0 mm | - | - | - |
| 1777831235 | 16.67° C | 38% | - | 0 mm | - | - | - |
| 1777830642 | 15° C | 38% | - | 0 mm | - | - | - |
| 1777830033 | 16.11° C | 38% | - | 0 mm | - | - | - |
| 1777829440 | 16.11° C | 38% | - | 0 mm | - | - | - |
| 1777828846 | 15.56° C | 38% | - | 0 mm | - | - | - |
| 1777828236 | 15° C | 38% | - | 0 mm | - | - | - |
| 1777827684 | 15° C | 38% | - | 0 mm | - | - | - |
| 1777827035 | 14.44° C | 40% | - | 0 mm | - | - | - |
| 1777826458 | 14.44° C | 40% | - | 0 mm | - | - | - |
| 1777825832 | 14.44° C | 38% | - | 0 mm | - | - | - |
| 1777825239 | 14.44° C | 39% | - | 0 mm | - | - | - |
| 1777824648 | 14.44° C | 40% | - | 0 mm | - | - | - |
| 1777824036 | 13.89° C | 39% | - | 0 mm | - | - | - |
| 1777823442 | 13.89° C | 39% | - | 0 mm | - | - | - |
| 1777822834 | 13.89° C | 40% | - | 0 mm | - | - | - |
| 1777822240 | 12.78° C | 40% | - | 0 mm | - | - | - |
* Rain latest hour (hover to see other rain measurements)
** Current wind speed in m/s (hover to see current wind gust speed)